Location: Zagreb
(45.8000°N, 16.0000°E)
Time: 00:49:06
(UTC+01:00)

A-11 Canister half - Visible Passes

Search period start: 26 January 2020 00:00
Search period end: 05 February 2020 00:00
Orbit: 1517 x 1683 km, 47.2° (Epoch: 25 January)

Date Brightness Start Highest point End Pass type
(mag) Time Alt. Az. Time Alt. Az. Time Alt. Az.
26 Jan 10.9 01:44:46 16° E 01:44:46 16° E 01:46:06 10° E visible
26 Jan 8.9 03:42:59 75° ESE 03:42:59 75° ESE 03:51:18 10° ESE visible
26 Jan 9.3 05:41:11 25° W 05:46:20 47° SW 05:55:06 10° SSE visible
27 Jan 9.3 03:21:26 57° ESE 03:21:26 57° ESE 03:28:23 10° ESE visible
27 Jan 9.2 05:19:38 33° W 05:23:29 49° SW 05:32:19 10° SE visible
28 Jan 9.7 02:59:55 42° ESE 02:59:55 42° ESE 03:05:28 10° ESE visible
28 Jan 9.1 04:58:08 42° WSW 05:00:38 51° SW 05:09:31 10° SE visible
29 Jan 10.2 02:38:28 30° E 02:38:28 30° E 02:42:32 10° ESE visible
29 Jan 9.0 04:36:41 51° WSW 04:37:47 54° SW 04:46:43 10° SE visible
29 Jan 10.3 06:35:34 10° W 06:41:02 17° SW 06:46:33 10° SSW visible
30 Jan 10.6 02:17:04 21° E 02:17:04 21° E 02:19:37 10° E visible
30 Jan 9.0 04:15:17 56° SSW 04:15:17 56° SSW 04:23:55 10° SE visible
30 Jan 10.2 06:13:30 13° W 06:18:15 19° SW 06:24:09 10° SSW visible
30 Jan 10.8 19:30:06 10° SSE 19:30:17 10° SSE 19:30:17 10° SSE visible
31 Jan 11.0 01:55:42 14° E 01:55:42 14° E 01:56:42 10° E visible
31 Jan 9.2 03:53:56 51° S 03:53:56 51° S 04:01:06 10° SE visible
31 Jan 10.1 05:52:10 17° WSW 05:55:27 20° SW 06:01:43 10° S visible
31 Jan 10.6 19:07:58 10° SSE 19:09:17 12° SE 19:09:17 12° SE visible
31 Jan 10.7 21:05:57 10° SSW 21:07:32 16° SSW 21:07:32 16° SSW visible
01 Feb 9.6 03:32:39 40° SSE 03:32:39 40° SSE 03:38:16 10° SE visible
01 Feb 10.0 05:30:53 21° WSW 05:32:40 22° SW 05:39:14 10° S visible
01 Feb 10.5 18:46:02 10° SE 18:48:16 12° SE 18:48:16 12° SE visible
01 Feb 10.3 20:43:10 10° SSW 20:46:31 23° SSW 20:46:31 23° SSW visible
02 Feb 10.1 03:11:25 29° SE 03:11:25 29° SE 03:15:26 10° SE visible
02 Feb 9.9 05:09:39 23° SW 05:09:52 23° SW 05:16:42 10° S visible
02 Feb 10.5 18:24:34 10° SE 18:26:16 11° ESE 18:27:15 10° ESE visible
02 Feb 9.9 20:20:24 10° SSW 20:25:29 30° S 20:25:29 30° S visible
03 Feb 10.5 02:50:15 20° SE 02:50:15 20° SE 02:52:36 10° SE visible
03 Feb 10.0 04:48:29 24° SW 04:48:29 24° SW 04:54:09 10° S visible
03 Feb 9.6 19:57:39 10° SSW 20:04:27 36° SSE 20:04:27 36° SSE visible
03 Feb 10.8 22:00:58 10° WSW 22:02:42 17° WSW 22:02:42 17° WSW visible
04 Feb 10.9 02:29:07 12° SE 02:29:07 12° SE 02:29:45 10° SE visible
04 Feb 10.1 04:27:22 22° SSW 04:27:22 22° SSW 04:31:34 10° S visible
04 Feb 9.5 19:34:54 10° SSW 19:43:22 37° SE 19:43:22 37° SE visible
04 Feb 10.3 21:38:02 10° WSW 21:41:36 26° WSW 21:41:36 26° WSW visible
